Location: Newark
(50.0306°N, 2.3272°E)
Time: 11:41:10
(UTC+00:00)

Vanguard 1 Rocket - Pass Details

Date: 12 December 2019
Orbit: 650 x 4226 km, 34.3° (Epoch: 23 January)

Event Time Altitude Azimuth Distance (km) Brightness Sun altitude
Rises 01:02:01 0° 265° (W) 5,614 - -59.0°
Reaches altitude 10° 01:07:46 10° 249° (WSW) 3,875 - -58.4°
Maximum altitude 01:13:15 17° 213° (SSW) 2,663 - -57.9°
Drops below altitude 10° 01:17:17 10° 173° (S) 2,698 - -57.4°
Sets 01:20:18 0° 152° (SSE) 3,332 - -57.1°
